User: anonymous   Login
Location: Helsinki
(60.1699°N, 24.9384°E)
Time: 23:14:39
(UTC+02:00)
Language:

Transit 2A Rocket - Orbit

View from above orbital plane
View from above orbital plane
View from above satellite
View from above satellite

Ground track
Ground track

The orbit data is extracted from the following two-line orbital elements,

1 00047U 60007C   24050.77743435  .00000574  00000-0  15153-3 0  9999
2 00047  66.6659 163.7686 0219691  39.1768 322.5008 14.43307151328271
Epoch (UTC): 19 February 2024 18:39:30
Eccentricity: 0.0219691
inclination: 66.6659°
perigee height: 591 km
apogee height: 904 km
right ascension of ascending node: 163.7686°
argument of perigee: 39.1768°
revolutions per day: 14.43307151
mean anomaly at epoch: 322.5008°
orbit number at epoch: 32827

The dashed part of the orbit path shows where the satellite is in the earth's shadow,  

DLR